Weather History for Abingdon, VA

Change the Weather History Date:

Tuesday, February 12, 2013

  Actual Average (KTRI) Record (KTRI)
Temperature  
Mean Temperature 42 °F 38 °F  
Max Temperature 52 °F 49 °F 68 °F (1938)
Min Temperature 32 °F 28 °F -1 °F (1981)
Degree Days  
Heating Degree Days 24 27  
Month to date heating degree days 334  
Since 1 July heating degree days 2988  
Cooling Degree Days 0 0  
Month to date cooling degree days 0  
Year to date cooling degree days 0  
Moisture  
Dew Point 29 °F    
Average Humidity 60    
Maximum Humidity 83    
Minimum Humidity 39    
Precipitation  
Precipitation 0.00 in 0.12 in 0.97 in (1948)
Month to date precipitation 1.49  
Year to date precipitation 4.86  
Snow  
Snow 0.00 in 0.10 in - ()
Month to date snowfall 1.6  
Since 1 July snowfall 9.0  
Snow Depth -    
Sea Level Pressure  
Sea Level Pressure 30.05 in    
Wind  
Wind Speed 4 mph (WNW)    
Max Wind Speed 10 mph    
Max Gust Speed 12 mph    
Visibility 10 miles    
Events      
T = Trace of Precipitation, MM = Missing Value Source: NWS Daily Summary

Daily Weather History Graph

Daily Weather History Graph

Search for Another Location

Airport:

Trip Planner

Search our weather history database for the weather conditions in past years. The results will help you decide how hot, cold, wet, or windy it might be!

Date:

Astronomy

Feb. 12, 2013 Rise Set
Actual Time 7:19 AM EST 6:05 PM EST
Civil Twilight 6:52 AM EST 6:32 PM EST
Nautical Twilight 6:22 AM EST 7:02 PM EST
Astronomical Twilight 5:52 AM EST 7:32 PM EST
Moon 8:21 AM EST (2/12) 8:58 PM EST (2/12)
Length of Visible Light 11h 39m
Length of Day
10h 46m
Waxing Crescent, 7% of the Moon is Illuminated
Feb 12
Waxing Crescent
Feb 17
First Quarter
Feb 25
Full
Mar 4
Last Quarter
Mar 11
New

Hourly Weather History & Observations

Time (EST) Temp. Windchill Dew Point Humidity Pressure Visibility Wind Dir Wind Speed Gust Speed Precip Events Conditions
12:15 AM 44.1 °F 39.5 °F 33.8 °F 67% 30.08 in 10.0 mi West 8.1 mph - N/A   Clear
12:35 AM 43.7 °F 41.1 °F 33.1 °F 66% 30.09 in 10.0 mi WNW 4.6 mph - N/A   Clear
12:55 AM 42.6 °F - 32.7 °F 68% 30.09 in 10.0 mi Calm Calm - N/A   Clear
1:15 AM 40.5 °F 37.3 °F 32.0 °F 72% 30.09 in 10.0 mi NNW 4.6 mph - N/A   Clear
1:35 AM 38.7 °F 36.3 °F 31.8 °F 76% 30.08 in 10.0 mi WNW 3.5 mph - N/A   Clear
1:55 AM 40.8 °F 37.8 °F 30.0 °F 65% 30.10 in 10.0 mi WNW 4.6 mph - N/A   Clear
2:15 AM 37.4 °F 34.9 °F 30.6 °F 76% 30.10 in 10.0 mi NW 3.5 mph - N/A   Clear
2:35 AM 37.4 °F - 30.6 °F 76% 30.10 in 10.0 mi Calm Calm - N/A   Clear
2:55 AM 35.6 °F 31.7 °F 30.0 °F 80% 30.09 in 10.0 mi NW 4.6 mph - N/A   Clear
3:15 AM 39.6 °F 36.3 °F 27.1 °F 61% 30.10 in 10.0 mi WNW 4.6 mph - N/A   Clear
3:35 AM 39.6 °F 37.4 °F 26.6 °F 60% 30.09 in 10.0 mi WNW 3.5 mph - N/A   Clear
3:55 AM 38.8 °F 36.5 °F 26.4 °F 61% 30.09 in 10.0 mi NW 3.5 mph - N/A   Clear
4:15 AM 37.0 °F 33.3 °F 26.6 °F 66% 30.10 in 10.0 mi NW 4.6 mph - N/A   Clear
4:35 AM 38.7 °F 35.2 °F 26.1 °F 61% 30.10 in 10.0 mi WNW 4.6 mph - N/A   Clear
4:55 AM 38.3 °F 35.9 °F 26.1 °F 61% 30.11 in 10.0 mi WNW 3.5 mph - N/A   Clear
5:15 AM 38.7 °F 36.3 °F 25.7 °F 60% 30.11 in 10.0 mi West 3.5 mph - N/A   Clear
5:35 AM 34.3 °F - 27.1 °F 75% 30.11 in 10.0 mi Calm Calm - N/A   Clear
6:15 AM 33.6 °F - 27.1 °F 77% 30.11 in 10.0 mi Calm Calm - N/A   Clear
6:35 AM 33.3 °F - 26.6 °F 77% 30.11 in 10.0 mi Calm Calm - N/A   Clear
6:55 AM 32.0 °F - 26.6 °F 80% 30.12 in 10.0 mi Calm Calm - N/A   Clear
7:15 AM 33.1 °F - 26.8 °F 78% 30.12 in 10.0 mi Calm Calm - N/A   Clear
7:35 AM 32.4 °F - 26.8 °F 80% 30.13 in 10.0 mi Calm Calm - N/A   Clear
7:55 AM 32.4 °F - 26.6 °F 79% 30.14 in 10.0 mi Calm Calm - N/A   Clear
8:15 AM 32.0 °F - 27.3 °F 83% 30.14 in 10.0 mi Calm Calm - N/A   Clear
8:35 AM 35.2 °F - 28.0 °F 75% 30.13 in 10.0 mi Calm Calm - N/A   Clear
8:55 AM 37.2 °F - 28.2 °F 70% 30.14 in 10.0 mi Calm Calm - N/A   Clear
9:15 AM 39.2 °F - 28.9 °F 67% 30.14 in 10.0 mi Calm Calm - N/A   Clear
9:35 AM 42.1 °F 39.2 °F 27.5 °F 56% 30.15 in 10.0 mi NW 4.6 mph - N/A   Clear
9:55 AM 42.3 °F 38.6 °F 27.5 °F 56% 30.15 in 10.0 mi NNW 5.8 mph - N/A   Clear
10:15 AM 42.3 °F 38.6 °F 26.6 °F 54% 30.15 in 10.0 mi NNW 5.8 mph - N/A   Clear
10:35 AM 42.8 °F 37.0 °F 27.0 °F 54% 30.14 in 10.0 mi NW 10.4 mph - N/A   Clear
10:55 AM 43.5 °F 38.9 °F 27.1 °F 53% 30.13 in 10.0 mi North 8.1 mph - N/A   Clear
11:15 AM 43.9 °F 41.3 °F 26.8 °F 51% 30.12 in 10.0 mi NNW 4.6 mph - N/A   Clear
11:35 AM 44.6 °F 40.7 °F 26.8 °F 50% 30.10 in 10.0 mi NNW 6.9 mph - N/A   Clear
11:55 AM 46.4 °F 44.3 °F 27.7 °F 48% 30.08 in 10.0 mi West 4.6 mph - N/A   Clear
12:15 PM 47.3 °F - 27.5 °F 46% 30.05 in 10.0 mi Calm Calm - N/A   Clear
12:35 PM 47.3 °F - 27.0 °F 45% 29.99 in 10.0 mi East 5.8 mph - N/A   Clear
12:55 PM 49.5 °F - 28.2 °F 44% 30.04 in 10.0 mi WSW 8.1 mph - N/A   Clear
1:15 PM 50.4 °F - 28.4 °F 43% 30.06 in 10.0 mi West 8.1 mph - N/A   Clear
1:35 PM 50.9 °F - 28.0 °F 41% 30.06 in 10.0 mi West 3.5 mph 11.5 mph N/A   Clear
1:55 PM 51.6 °F - 28.4 °F 41% 30.05 in 10.0 mi West 10.4 mph - N/A   Clear
2:15 PM 51.4 °F - 27.5 °F 40% 30.04 in 10.0 mi West 10.4 mph - N/A   Clear
2:35 PM 50.9 °F - 28.0 °F 41% 30.03 in 10.0 mi West 5.8 mph - N/A   Clear
2:55 PM 51.4 °F - 27.9 °F 40% 30.02 in 10.0 mi West 5.8 mph - N/A   Clear
3:15 PM 51.3 °F - 28.6 °F 42% 30.00 in 10.0 mi West 5.8 mph - N/A   Clear
3:35 PM 50.5 °F - 26.8 °F 40% 30.03 in 10.0 mi West 5.8 mph - N/A   Clear
3:55 PM 50.4 °F - 26.2 °F 39% 30.04 in 10.0 mi West 5.8 mph - N/A   Clear
4:15 PM 50.0 °F - 30.7 °F 48% 30.03 in 10.0 mi West 3.5 mph - N/A   Clear
4:35 PM 49.3 °F - 30.7 °F 49% 30.03 in 10.0 mi WSW 5.8 mph - N/A   Clear
5:15 PM 48.4 °F - 29.8 °F 49% 30.00 in 10.0 mi WSW 5.8 mph - N/A   Clear
5:35 PM 47.8 °F - 30.2 °F 50% 30.00 in 10.0 mi WSW 4.6 mph - N/A   Clear
5:55 PM 47.5 °F - 29.8 °F 50% 30.00 in 10.0 mi West 3.5 mph - N/A   Clear
6:15 PM 46.9 °F - 29.1 °F 50% 29.99 in 10.0 mi West 3.5 mph - N/A   Clear
6:35 PM 46.6 °F - 29.1 °F 51% 29.97 in 10.0 mi Calm Calm - N/A   Clear
6:55 PM 46.4 °F - 29.8 °F 53% 29.95 in 10.0 mi Calm Calm - N/A   Clear
7:15 PM 45.9 °F - 30.0 °F 54% 29.94 in 10.0 mi Calm Calm - N/A   Clear
7:35 PM 44.6 °F - 31.6 °F 60% 29.95 in 10.0 mi Calm Calm - N/A   Scattered Clouds
7:55 PM 44.2 °F - 32.0 °F 62% 29.96 in 10.0 mi Calm Calm - N/A   Mostly Cloudy
8:15 PM 44.2 °F - 32.4 °F 63% 29.97 in 10.0 mi Calm Calm - N/A   Overcast
8:35 PM 43.7 °F - 32.9 °F 66% 29.97 in 10.0 mi Calm Calm - N/A   Overcast
8:55 PM 43.5 °F - 32.2 °F 64% 29.97 in 10.0 mi Calm Calm - N/A   Overcast
9:35 PM 43.7 °F - 33.3 °F 67% 29.95 in 10.0 mi Calm Calm - N/A   Overcast
9:55 PM 43.2 °F - 32.9 °F 67% 29.94 in 10.0 mi Calm Calm - N/A   Overcast
10:15 PM 43.3 °F - 32.5 °F 66% 29.94 in 10.0 mi Calm Calm - N/A   Overcast
10:35 PM 43.7 °F - 32.5 °F 65% 29.93 in 10.0 mi Calm Calm - N/A   Overcast
10:55 PM 43.9 °F - 32.0 °F 63% 29.92 in 10.0 mi Calm Calm - N/A   Overcast
11:15 PM 43.7 °F - 34.3 °F 70% 29.91 in 10.0 mi Calm Calm - N/A   Overcast
11:35 PM 43.7 °F - 34.2 °F 69% 29.90 in 10.0 mi Calm Calm - N/A   Overcast
11:55 PM 43.2 °F - 35.1 °F 73% 29.89 in 10.0 mi Calm Calm - N/A   Overcast